Home   Weather   Celje   Past weeks

Flag for Slovenia Past Weather in Celje, Slovenia — Yesterday and Last 2 Weeks

Now
44 °F

Quite cool.


Feels Like: 44 °F
Forecast: 18 / 37 °F
Wind: 2 mph from West

Location: Celje

Current Time: Dec 6, 2016 at 1:28:35 pm

Latest Report: Dec 6, 2016 at 12:00 pm


Visibility: N/A

Pressure: 30.40 "Hg

Humidity: 53%

Dew Point: 28 °F

Location of CeljeLocation

Past Weather in Celje — Graph

°F

Celje Temperature Yesterday

Maximum temperature yesterday: 42 °F (at 3:00 pm)
Minimum temperature yesterday: 25 °F (at 11:00 pm)
Average temperature yesterday: 33 °F

High & Low Weather Summary for the Past Weeks

 TemperatureHumidityPressure
High64 °F (Nov 23, 1:00 pm)97% (Nov 21, 10:00 pm)30.60 "Hg (Nov 21, 10:00 pm)
Low19 °F (Nov 30, 6:00 am)38% (Nov 29, 2:00 pm)29.88 "Hg (Nov 27, 3:00 pm)
Average39 °F83%30.22 "Hg
* Reported Nov 21 12:00 pm — Dec 6 12:00 pm, Celje, Weather by CustomWeather, © 2016

Note: Actual official high and low records may vary slightly from our data, if they occured in-between our weather recording intervals... More about our weather records

Advertising

Celje Weather History for the Previous 24 Hours

Scroll right to see more
 ConditionsComfort  
Time TempWeatherWind HumidityBarometerVisibility
12:00 pm
Tue, Dec 6
44 °FQuite cool.2 mph53%30.40 "HgN/A
11:00 am38 °FChilly.1 mph70%30.42 "HgN/A
10:00 am32 °FChilly.1 mph82%30.44 "HgN/A
9:00 am26 °FChilly.1 mph89%30.44 "HgN/A
8:00 am22 °FCold.1 mph89%30.45 "HgN/A
7:00 am22 °FPassing clouds.1 mph90%30.43 "Hg12 mi
6:00 am22 °FCold.1 mph90%30.42 "HgN/A
5:00 am21 °FCold.1 mph89%30.41 "HgN/A
4:00 am22 °FCold.1 mph90%30.42 "HgN/A
3:00 am23 °FCold.1 mph91%30.42 "HgN/A
2:00 am23 °FCold.1 mph91%30.42 "HgN/A
1:00 am24 °FCold.1 mph91%30.42 "HgN/A
12:00 am24 °FCold.1 mph91%30.42 "HgN/A
11:00 pm
Mon, Dec 5
25 °FChilly.1 mph91%30.43 "HgN/A
10:00 pm25 °FChilly.1 mph92%30.43 "HgN/A
9:00 pm26 °FChilly.No wind90%30.44 "HgN/A
8:00 pm28 °FChilly.1 mph91%30.43 "HgN/A
7:00 pm28 °FChilly.1 mph91%30.43 "HgN/A
6:00 pm30 °FChilly.1 mph89%30.42 "HgN/A
5:00 pm31 °FChilly.1 mph86%30.42 "HgN/A
4:00 pm36 °FChilly.No wind75%30.40 "HgN/A
3:00 pm42 °FQuite cool.1 mph58%30.40 "HgN/A
2:00 pm41 °FScattered clouds.1 mph60%30.40 "Hg11 mi
1:00 pm41 °FQuite cool.1 mph58%30.42 "HgN/A
Weather by CustomWeather, © 2016

See weather overviewHow to use our weather pages